sat.trackr.live / text

‹ back to catalog

STARLINK-1042

NORAD 44747 · 2019-074AL

PAYLOAD ACTIVE UNKNOWN

§ Identity

Operator
Country
US
Launch date
2019-11-11
Launch site
AFETR
Launch vehicle
Mass (kg)
RCS (m²)

Purposes: comms

External: N2YO · Heavens-Above · Gunter

§ Orbital elements

Epoch: 2026-09-20T05:16:02.430912Z

Period
92.24 min
Inclination
53.0389°
Eccentricity
0.0005973
Mean motion
15.61213411 rev/d
Perigee alt
380.1 km
Apogee alt
388.2 km
Semi-major
6,762.3 km
B*
3.2488e-4
RAAN
234.2985°
Arg perigee
53.1683°
Mean anomaly
306.9877°
Rev number
38,033

§ Raw data

STARLINK-10421 44747U 19074AL  26263.21947258  .00027609  00000+0  32488-3 0  99952 44747  53.0389 234.2985 0005973  53.1683 306.9877 15.61213411380331

JSON: /api/v1/satellites/44747 · /tle

For live sub-satellite position, see the globe view (requires WebGL).

§ Visibility from observer

Set your observer location to see the next 7 days of passes ≥ 10°. The values pass through the URL so the page stays shareable.

No JS? Fill the form by hand. The geolocation button needs JavaScript.